Princeton, MN

8:42 PM CST on February 13, 2016 (GMT -0600)
Princeton Municipal

Weather History for KPNM - October, 2014

Change the Weather History Date:

Friday, October 3, 2014

  Actual Average Record
Temperature  
Mean Temperature 42 °F -  
Max Temperature 48 °F 61 °F - (-1)
Min Temperature 37 °F 38 °F - (-1)
Degree Days  
Heating Degree Days 22    
Moisture  
Dew Point 37 °F    
Average Humidity 76    
Maximum Humidity 100    
Minimum Humidity 53    
Precipitation  
Precipitation 0.00 in - - ()
Sea Level Pressure  
Sea Level Pressure 29.77 in    
Wind  
Wind Speed 13 mph (West)    
Max Wind Speed 29 mph    
Max Gust Speed 39 mph    
Visibility 10 miles    
Events      
Averages and records for this station are not official NWS values.
T = Trace of Precipitation, MM = Missing Value Source: NWS Daily Summary

Daily Weather History Graph

Daily Weather History Graph

Search for Another Location

Airport or City:

Trip Planner

Search our weather history database for the weather conditions in past years. The results will help you decide how hot, cold, wet, or windy it might be!

Date:

Astronomy

Oct. 03, 2014 Rise Set
Actual Time 7:15 AM CDT 6:50 PM CDT
Civil Twilight 6:45 AM CDT 7:20 PM CDT
Nautical Twilight 6:11 AM CDT 7:54 PM CDT
Astronomical Twilight 5:36 AM CDT 8:29 PM CDT
Moon 3:58 PM CDT (10/3) 1:21 AM CDT (10/3)
Length of Visible Light 12h 34m
Length of Day
11h 35m
Waxing Gibbous, 71% of the Moon is Illuminated
Oct 3
Waxing Gibbous
Oct 8
Full
Oct 15
Last Quarter
Oct 23
New
Oct 30
First Quarter

Hourly Weather History & Observations

Time (CDT) Temp. Windchill Dew Point Humidity Pressure Visibility Wind Dir Wind Speed Gust Speed Precip Events Conditions
12:01 AM 48.2 °F - 46.4 °F 93% 29.73 in 0.8 mi South 1.2 mph - N/A   Overcast
12:21 AM 48.2 °F - 46.4 °F 93% 29.72 in 2.0 mi SW 2.3 mph - N/A   Mostly Cloudy
12:41 AM 46.4 °F - 46.4 °F 100% 29.71 in 1.0 mi Calm Calm - N/A   Clear
1:01 AM 46.4 °F 44.3 °F 44.6 °F 93% 29.72 in 1.0 mi WSW 4.6 mph - N/A   Clear
1:21 AM 48.2 °F - 46.4 °F 93% 29.72 in 10.0 mi West 8.1 mph - N/A   Clear
1:41 AM 48.2 °F - 46.4 °F 93% 29.73 in 10.0 mi West 5.8 mph - N/A   Scattered Clouds
2:01 AM 48.2 °F - 46.4 °F 93% 29.74 in 10.0 mi West 10.4 mph - N/A   Clear
2:21 AM 48.2 °F - 46.4 °F 93% 29.74 in 10.0 mi West 9.2 mph - N/A   Scattered Clouds
2:41 AM 48.2 °F - 46.4 °F 93% 29.74 in 10.0 mi West 10.4 mph - N/A   Scattered Clouds
3:01 AM 48.2 °F - 46.4 °F 93% 29.74 in 10.0 mi West 13.8 mph - N/A   Clear
3:21 AM 48.2 °F - 46.4 °F 93% 29.74 in 10.0 mi West 12.7 mph 18.4 mph N/A   Mostly Cloudy
3:41 AM 48.2 °F - 44.6 °F 87% 29.73 in 10.0 mi West 20.7 mph 25.3 mph N/A   Overcast
4:01 AM 48.2 °F - 44.6 °F 87% 29.73 in 10.0 mi West 13.8 mph 21.9 mph N/A   Overcast
4:21 AM 48.2 °F - 44.6 °F 87% 29.73 in 10.0 mi West 13.8 mph 23.0 mph N/A   Overcast
4:41 AM 48.2 °F - 42.8 °F 82% 29.73 in 10.0 mi West 15.0 mph 25.3 mph N/A   Overcast
5:01 AM 46.4 °F 40.4 °F 42.8 °F 87% 29.74 in 10.0 mi West 13.8 mph 19.6 mph N/A   Overcast
5:21 AM 46.4 °F 40.4 °F 42.8 °F 87% 29.74 in 10.0 mi West 13.8 mph 26.5 mph N/A   Overcast
5:41 AM 46.4 °F 40.7 °F 41.0 °F 81% 29.75 in 10.0 mi West 12.7 mph 24.2 mph N/A   Overcast
6:01 AM 46.4 °F 40.4 °F 41.0 °F 81% 29.75 in 10.0 mi West 13.8 mph 21.9 mph N/A   Overcast
6:21 AM 46.4 °F 39.2 °F 39.2 °F 76% 29.75 in 10.0 mi West 18.4 mph 25.3 mph N/A   Overcast
6:41 AM 46.4 °F 40.1 °F 39.2 °F 76% 29.74 in 10.0 mi West 15.0 mph 24.2 mph N/A   Overcast
7:01 AM 46.4 °F 40.1 °F 39.2 °F 76% 29.74 in 10.0 mi West 15.0 mph 21.9 mph N/A   Overcast
7:21 AM 46.4 °F 40.7 °F 39.2 °F 76% 29.75 in 10.0 mi West 12.7 mph 21.9 mph N/A   Overcast
7:41 AM 46.4 °F 40.1 °F 39.2 °F 76% 29.74 in 10.0 mi West 15.0 mph 26.5 mph N/A   Overcast
8:01 AM 44.6 °F 38.1 °F 39.2 °F 81% 29.75 in 10.0 mi West 13.8 mph 24.2 mph N/A   Overcast
8:21 AM 44.6 °F 36.6 °F 39.2 °F 81% 29.75 in 10.0 mi West 19.6 mph 27.6 mph N/A   Overcast
8:41 AM 44.6 °F 36.1 °F 39.2 °F 81% 29.75 in 10.0 mi West 21.9 mph 27.6 mph N/A   Overcast
9:01 AM 44.6 °F 35.9 °F 39.2 °F 81% 29.76 in 10.0 mi West 23.0 mph 32.2 mph N/A   Overcast
9:21 AM 42.8 °F 34.3 °F 37.4 °F 81% 29.77 in 10.0 mi West 19.6 mph 28.8 mph N/A   Overcast
9:41 AM 41.0 °F 31.4 °F 37.4 °F 87% 29.78 in 10.0 mi West 21.9 mph 31.1 mph N/A   Overcast
10:01 AM 39.2 °F 29.0 °F 37.4 °F 93% 29.78 in 10.0 mi West 21.9 mph 31.1 mph N/A   Overcast
10:21 AM 39.2 °F 30.2 °F 37.4 °F 93% 29.79 in 10.0 mi West 17.3 mph 31.1 mph N/A   Overcast
10:41 AM 39.2 °F 30.2 °F 37.4 °F 93% 29.78 in 10.0 mi WNW 17.3 mph 32.2 mph N/A   Overcast
11:01 AM 41.0 °F 31.9 °F 37.4 °F 87% 29.78 in 10.0 mi WNW 19.6 mph 33.4 mph N/A   Mostly Cloudy
11:21 AM 42.8 °F 33.8 °F 37.4 °F 81% 29.78 in 10.0 mi West 21.9 mph 34.5 mph N/A   Mostly Cloudy
11:41 AM 42.8 °F 34.8 °F 37.4 °F 81% 29.79 in 10.0 mi WNW 17.3 mph 34.5 mph N/A   Mostly Cloudy
12:01 PM 44.6 °F 36.4 °F 35.6 °F 71% 29.79 in 10.0 mi West 20.7 mph 33.4 mph N/A   Overcast
12:21 PM 44.6 °F 36.6 °F 33.8 °F 66% - 10.0 mi North 19.6 mph 31.1 mph N/A   Overcast
12:41 PM 44.6 °F 35.9 °F 32.0 °F 61% 29.80 in 10.0 mi West 23.0 mph 35.7 mph N/A   Overcast
1:01 PM 44.6 °F 35.5 °F 32.0 °F 61% 29.79 in 10.0 mi WNW 25.3 mph 36.8 mph N/A   Overcast
1:21 PM 46.4 °F 37.4 °F 32.0 °F 57% 29.78 in 10.0 mi West 28.8 mph 39.1 mph N/A   Overcast
1:41 PM 46.4 °F 38.7 °F 30.2 °F 53% 29.78 in 10.0 mi WNW 20.7 mph 32.2 mph N/A   Mostly Cloudy
2:01 PM 46.4 °F 38.7 °F 30.2 °F 53% 29.78 in 10.0 mi West 20.7 mph 32.2 mph N/A   Mostly Cloudy
2:21 PM 46.4 °F 38.1 °F 30.2 °F 53% 29.78 in 10.0 mi West 24.2 mph 32.2 mph N/A   Overcast
2:41 PM 44.6 °F 35.7 °F 30.2 °F 57% 29.78 in 10.0 mi West 24.2 mph 29.9 mph N/A   Overcast
3:01 PM 44.6 °F 36.6 °F 30.2 °F 57% 29.78 in 10.0 mi West 19.6 mph 34.5 mph N/A   Overcast
3:21 PM 44.6 °F 35.7 °F 30.2 °F 57% 29.79 in 10.0 mi West 24.2 mph 35.7 mph N/A   Overcast
3:41 PM 46.4 °F 37.9 °F 30.2 °F 53% 29.79 in 10.0 mi West 25.3 mph 34.5 mph N/A   Overcast
4:01 PM 46.4 °F 38.1 °F 30.2 °F 53% 29.79 in 10.0 mi West 24.2 mph 33.4 mph N/A   Overcast
4:21 PM 44.6 °F 36.1 °F 30.2 °F 57% 29.79 in 10.0 mi WNW 21.9 mph 31.1 mph N/A   Overcast
4:41 PM 44.6 °F 36.1 °F 28.4 °F 53% 29.79 in 10.0 mi West 21.9 mph 26.5 mph N/A   Overcast
5:01 PM 44.6 °F 35.7 °F 28.4 °F 53% 29.80 in 10.0 mi West 24.2 mph 28.8 mph N/A   Overcast
5:21 PM 44.6 °F 36.1 °F 30.2 °F 57% 29.80 in 10.0 mi West 21.9 mph 28.8 mph N/A   Overcast
5:41 PM 44.6 °F 36.6 °F 30.2 °F 57% 29.81 in 10.0 mi WNW 19.6 mph 32.2 mph N/A   Overcast
6:01 PM 42.8 °F 34.3 °F 30.2 °F 61% 29.81 in 10.0 mi West 19.6 mph 29.9 mph N/A   Overcast
6:21 PM 42.8 °F 35.8 °F 30.2 °F 61% 29.81 in 10.0 mi West 13.8 mph 32.2 mph N/A   Overcast
6:41 PM 42.8 °F 34.0 °F 30.2 °F 61% 29.80 in 10.0 mi West 20.7 mph 29.9 mph N/A   Overcast
7:01 PM 42.8 °F 34.5 °F 30.2 °F 61% 29.80 in 10.0 mi West 18.4 mph 25.3 mph N/A   Overcast
7:21 PM 42.8 °F 33.3 °F 30.2 °F 61% 29.80 in 10.0 mi West 24.2 mph 33.4 mph N/A   Overcast
7:41 PM 42.8 °F 34.5 °F 30.2 °F 61% 29.80 in 10.0 mi West 18.4 mph 27.6 mph N/A   Overcast
8:01 PM 42.8 °F 33.3 °F 30.2 °F 61% 29.79 in 10.0 mi West 24.2 mph 31.1 mph N/A   Overcast
8:21 PM 41.0 °F 31.1 °F 30.2 °F 65% 29.79 in 10.0 mi West 23.0 mph 35.7 mph N/A   Overcast
8:41 PM 42.8 °F 34.5 °F 30.2 °F 61% 29.79 in 10.0 mi West 18.4 mph 32.2 mph N/A   Overcast
9:01 PM 41.0 °F 32.2 °F 30.2 °F 65% 29.79 in 10.0 mi West 18.4 mph 25.3 mph N/A   Overcast
9:21 PM 39.2 °F 29.6 °F 32.0 °F 75% 29.78 in 10.0 mi West 19.6 mph 26.5 mph N/A   Overcast
9:41 PM 39.2 °F 29.8 °F 32.0 °F 75% 29.77 in 10.0 mi West 18.4 mph 25.3 mph N/A   Overcast
10:01 PM 39.2 °F 30.2 °F 33.8 °F 81% 29.76 in 10.0 mi West 17.3 mph 26.5 mph N/A   Overcast
10:21 PM 39.2 °F 28.7 °F 33.8 °F 81% 29.76 in 10.0 mi West 23.0 mph 31.1 mph N/A   Overcast
11:01 PM 37.4 °F 27.5 °F 35.6 °F 93% 29.75 in 10.0 mi West 18.4 mph 29.9 mph N/A   Overcast
11:21 PM 37.4 °F 26.6 °F 35.6 °F 93% 29.74 in 10.0 mi West 21.9 mph 28.8 mph N/A   Overcast
11:41 PM 37.4 °F 28.2 °F 35.6 °F 93% 29.75 in 10.0 mi West 16.1 mph 32.2 mph N/A   Overcast